Home   Weather   Garmisch-Partenkirchen   Past weeks
Flag for Germany

Past Weather in Garmisch-Partenkirchen, Bavaria, Germany — Yesterday and Last 2 Weeks

Now
64 °F

Scattered clouds.


Feels Like: 64 °F
Forecast: 63 / 45 °F
Wind: 12 mph from South

Location: Innsbruck-Flughafen

Current Time: Oct 18, 2019 at 7:02:26 pm

Latest Report: Oct 18, 2019 at 6:20 pm


Visibility: N/A

Pressure: 29.95 "Hg (27.59 "Hg at 699m altitude)

Humidity: 46%

Dew Point: 43 °F

Location of Garmisch-PartenkirchenLocation

Past Weather in Garmisch-Partenkirchen — Graph

°F

Garmisch-Partenkirchen Temperature Yesterday

Maximum temperature yesterday: 66 °F (at 3:50 pm)
Minimum temperature yesterday: 41 °F (at 6:50 am)
Average temperature yesterday: 51 °F

High & Low Weather Summary for the Past Weeks

 TemperatureHumidityPressure
High73 °F (Oct 14, 3:20 pm)100% (Oct 5, 12:50 am)30.27 "Hg (Oct 5, 12:50 am)
Low36 °F (Oct 4, 2:50 am)40% (Oct 12, 2:20 pm)29.71 "Hg (Oct 15, 4:50 pm)
Average51 °F80%30.03 "Hg
* Reported Oct 3 5:20 pm — Oct 18 5:50 pm, Garmisch-Partenkirchen. Weather by CustomWeather, © 2019

Note: Actual official high and low records may vary slightly from our data, if they occured in-between our weather recording intervals... More about our weather records

Advertising

Garmisch-Partenkirchen Weather History for the Previous 24 Hours

Scroll right to see more
 ConditionsComfort  
Time TempWeatherWind HumidityBarometerVisibility
5:50 pm
Fri, Oct 18
64 °FPartly sunny.14 mph46%29.95 "HgN/A
5:20 pm64 °FPartly sunny.10 mph46%29.95 "HgN/A
4:50 pm66 °FPartly sunny.10 mph43%29.95 "HgN/A
4:20 pm66 °FBroken clouds.10 mph43%29.92 "HgN/A
3:50 pm68 °FBroken clouds.7 mph43%29.92 "HgN/A
3:20 pm64 °FBroken clouds.3 mph49%29.95 "HgN/A
2:50 pm64 °FBroken clouds.6 mph56%29.95 "HgN/A
2:20 pm64 °FBroken clouds.9 mph52%29.95 "HgN/A
1:50 pm63 °FBroken clouds.9 mph56%29.95 "HgN/A
1:20 pm63 °FScattered clouds.7 mph52%29.95 "HgN/A
12:50 pm61 °FScattered clouds.3 mph59%29.98 "HgN/A
12:20 pm59 °FScattered clouds.5 mph63%30.01 "HgN/A
11:50 am57 °FScattered clouds.2 mph67%30.01 "HgN/A
11:20 am55 °FScattered clouds.1 mph67%30.04 "HgN/A
10:20 am52 °FScattered clouds.2 mph77%30.04 "HgN/A
9:50 am48 °FScattered clouds.1 mph87%30.07 "HgN/A
9:20 am48 °FScattered clouds.1 mph87%30.07 "HgN/A
8:50 am45 °FBroken clouds.1 mph93%30.07 "HgN/A
8:20 am43 °FPartly sunny.1 mph93%30.07 "HgN/A
7:50 am43 °FScattered clouds.1 mph93%30.07 "HgN/A
7:20 am43 °FPassing clouds.1 mph93%30.04 "HgN/A
6:50 am43 °FPassing clouds.3 mph93%30.04 "HgN/A
6:20 am43 °FPassing clouds.2 mph93%30.04 "HgN/A
5:50 am43 °FPassing clouds.1 mph93%30.04 "HgN/A
5:20 am45 °FPassing clouds.1 mph93%30.04 "HgN/A
4:50 am45 °FOvercast.2 mph93%30.07 "HgN/A
4:20 am45 °FPassing clouds.1 mph93%30.07 "HgN/A
3:50 am43 °FPassing clouds.2 mph93%30.07 "HgN/A
3:20 am45 °FPassing clouds.2 mph93%30.07 "HgN/A
2:50 am45 °FPassing clouds.2 mph93%30.07 "HgN/A
2:20 am46 °FClear.2 mph87%30.07 "HgN/A
1:50 am46 °FClear.2 mph87%30.07 "HgN/A
1:20 am46 °FPassing clouds.2 mph87%30.07 "HgN/A
12:50 am48 °FClear.2 mph87%30.04 "HgN/A
12:20 am48 °FPassing clouds.5 mph87%30.04 "HgN/A
11:50 pm
Thu, Oct 17
50 °FPassing clouds.5 mph82%30.04 "HgN/A
11:20 pm50 °FClear.10 mph82%30.04 "HgN/A
10:20 pm52 °FPassing clouds.6 mph77%30.04 "HgN/A
9:50 pm52 °FPassing clouds.6 mph77%30.01 "HgN/A
9:20 pm52 °FClear.8 mph82%30.01 "Hg10 mi
8:50 pm54 °FClear.6 mph77%30.01 "Hg10 mi
8:20 pm54 °FClear.3 mph77%30.01 "Hg10 mi
7:50 pm54 °FPassing clouds.3 mph72%30.01 "HgN/A
7:20 pm54 °FClear.2 mph77%29.98 "Hg10 mi
Weather by CustomWeather, © 2019

See weather overview